Content
SEND FEEDBACK

Daily
Averages
Monthly
Summary
Canada

STEVESTON, BRITISH COLUMBIA


Home > North America > Canada > British Columbia
Elevation: 7 feet     Latitude: 49 10N     Longitude: 123 10W

WEATHER
 
SELECT A DAY
Number of Records: 254,882;   Date Range: 5/15/97 - 12/18/14
 
SHARE

PRINT THIS DATA

[ ← Previous Day ]
WEATHER ALMANAC - JANUARY 1, 2013
[ Next Day → ]
[ °C ]   °F
Weather ElementAverageHighLow
Temperature35.8 °F39.2 °F (7:15 pm)32 °F (3:15 am)
Dewpoint32.6 °F37.4 °F (12:35 am)28.4 °F (10:15 pm)
Humidity88.8 %100 % (12:35 am)70 % (10:15 pm)
Barometer30.44 in30.51 in (9:55 am)30.37 in (8:55 pm)
Wind Speed2.5 mph8.1 mph (11:15 am)
Weather ElementAverage
Visibility8.2 mi
Wind DirectionENE (59.7 °)

Weather ElementTotal
Precipitation---
Heating Degree Days29.4 (Base 65)
Averaged from 69 records on January 1, 2013
WEATHER CONDITIONS BREAKOUT
WIND DIRECTION BREAKOUT
WEATHER BY HOUR - JANUARY 1, 2013
[ °C ]   °F
Local TimeTemperatureDewpointHumidityBarometerVisibilityWind DirectionWind SpeedGust SpeedPrecipitationEventsConditions
12:35 AM37.4 °F37.4 °F100 %30.46 in7.0 miCalmOvercast
12:55 AM37.4 °F37.4 °F100 %30.46 in8.0 miCalmOvercast
1:15 AM37.4 °F35.6 °F93 %30.46 in5.0 miCalmOvercast
1:35 AM35.6 °F35.6 °F100 %30.46 in5.0 miCalmOvercast
1:55 AM35.6 °F35.6 °F100 %30.47 in4.0 miCalmMostly Cloudy
2:15 AM35.6 °F35.6 °F100 %30.47 in3.0 miCalmPartly Cloudy
2:35 AM33.8 °F33.8 °F100 %30.48 in3.0 miCalmClear
2:55 AM33.8 °F33.8 °F100 %30.47 in3.0 miCalmClear
3:15 AM32.0 °F32.0 °F100 %30.46 in3.0 miCalmClear
3:35 AM32.0 °F32.0 °F100 %30.46 in3.0 miCalmClear
3:55 AM32.0 °F32.0 °F100 %30.45 in3.0 miCalmPartly Cloudy
4:15 AM32.0 °F32.0 °F100 %30.45 in3.0 miCalmClear
4:35 AM32.0 °F32.0 °F100 %30.45 in2.5 miCalmScattered Clouds
4:55 AM32.0 °F32.0 °F100 %30.45 in1.5 miCalmMostly Cloudy
5:15 AM32.0 °F32.0 °F100 %30.44 in3.0 miCalmClear
5:35 AM32.0 °F32.0 °F100 %30.45 in3.0 miCalmScattered Clouds
5:55 AM32.0 °F32.0 °F100 %30.45 in4.0 miCalmOvercast
6:15 AM32.0 °F32.0 °F100 %30.46 in4.0 miCalmOvercast
6:35 AM32.0 °F32.0 °F100 %30.46 in5.0 miCalmMostly Cloudy
6:55 AM32.0 °F32.0 °F100 %30.46 in5.0 miCalmScattered Clouds
7:15 AM32.0 °F32.0 °F100 %30.46 in9.0 miCalmMostly Cloudy
7:35 AM33.8 °F33.8 °F100 %30.47 in8.0 miCalmOvercast
7:55 AM35.6 °F35.6 °F100 %30.47 in9.0 miEast (90°)3.5 mphOvercast
8:15 AM35.6 °F35.6 °F100 %30.48 in10.0 miCalmOvercast
8:35 AM35.6 °F33.8 °F93 %30.48 in10.0 miNE (40°)4.6 mphOvercast
8:55 AM35.6 °F32.0 °F87 %30.48 in9.0 miCalmScattered Clouds
9:15 AM35.6 °F32.0 °F87 %30.49 in10.0 miCalmPartly Cloudy
9:35 AM35.6 °F32.0 °F87 %30.50 in10.0 miCalmMostly Cloudy
9:55 AM35.6 °F32.0 °F87 %30.51 in10.0 miNE (40°)3.5 mphScattered Clouds
10:15 AM35.6 °F32.0 °F87 %30.51 in10.0 miNE (50°)4.6 mphClear
10:35 AM35.6 °F32.0 °F87 %30.50 in10.0 miNE (40°)4.6 mphClear
10:55 AM35.6 °F32.0 °F87 %30.50 in10.0 miENE (70°)4.6 mphClear
11:15 AM35.6 °F30.2 °F81 %30.49 in10.0 miNE (40°)8.1 mphClear
11:35 AM35.6 °F30.2 °F81 %30.48 in10.0 miENE (60°)4.6 mphClear
11:55 AM35.6 °F30.2 °F81 %30.48 in10.0 miNNE (30°)5.8 mphClear
12:15 PM37.4 °F30.2 °F75 %30.48 in10.0 miNE (50°)5.8 mphClear
12:35 PM37.4 °F30.2 °F75 %30.47 in10.0 miNE (50°)4.6 mphClear
12:55 PM37.4 °F30.2 °F75 %30.46 in10.0 miNNE (30°)5.8 mphClear
1:15 PM37.4 °F32.0 °F81 %30.46 in10.0 miNE (40°)5.8 mphClear
1:35 PM37.4 °F32.0 °F81 %30.46 in10.0 miNorth (360°)6.9 mphClear
1:55 PM37.4 °F32.0 °F81 %30.45 in10.0 miNorth (10°)4.6 mphClear
2:15 PM37.4 °F32.0 °F81 %30.45 in10.0 miNorth (10°)4.6 mphClear
2:35 PM37.4 °F33.8 °F87 %30.45 in10.0 miNorth (360°)5.8 mphPartly Cloudy
2:55 PM37.4 °F33.8 °F87 %30.45 in10.0 miNorth (10°)8.1 mphPartly Cloudy
3:15 PM37.4 °F32.0 °F81 %30.45 in10.0 miNorth (360°)5.8 mphPartly Cloudy
3:35 PM37.4 °F32.0 °F81 %30.45 in10.0 miNorth (360°)3.5 mphClear
3:55 PM37.4 °F32.0 °F81 %30.44 in10.0 miNorth (360°)3.5 mphClear
4:15 PM37.4 °F33.8 °F87 %30.45 in10.0 miNorth (350°)4.6 mphClear
4:35 PM37.4 °F33.8 °F87 %30.44 in10.0 miNorth (360°)4.6 mphClear
4:55 PM37.4 °F33.8 °F87 %30.43 in10.0 miNorth (360°)4.6 mphPartly Cloudy
5:15 PM37.4 °F35.6 °F93 %30.42 in10.0 miNorth (10°)5.8 mphClear
5:35 PM37.4 °F33.8 °F87 %30.41 in10.0 miNorth (10°)4.6 mphPartly Cloudy
5:55 PM37.4 °F35.6 °F93 %30.41 in10.0 miNorth (360°)5.8 mphMostly Cloudy
6:15 PM37.4 °F33.8 °F87 %30.41 in10.0 miNorth (10°)4.6 mphScattered Clouds
6:35 PM37.4 °F35.6 °F93 %30.40 in10.0 miNorth (10°)3.5 mphPartly Cloudy
6:55 PM37.4 °F35.6 °F93 %30.39 in10.0 miCalmClear
7:15 PM39.2 °F32.0 °F75 %30.39 in10.0 miCalmClear
7:35 PM37.4 °F32.0 °F81 %30.39 in10.0 miNE (40°)3.5 mphClear
7:55 PM37.4 °F32.0 °F81 %30.39 in10.0 miCalmClear
8:15 PM37.4 °F32.0 °F81 %30.39 in10.0 miNNE (30°)4.6 mphClear
8:35 PM37.4 °F30.2 °F75 %30.38 in10.0 miNE (40°)4.6 mphClear
8:55 PM37.4 °F32.0 °F81 %30.37 in10.0 miNNE (20°)5.8 mphClear
9:15 PM37.4 °F32.0 °F81 %30.37 in10.0 miCalmClear
9:55 PM37.4 °F30.2 °F75 %30.38 in10.0 miNNE (30°)5.8 mphClear
10:15 PM37.4 °F28.4 °F70 %30.37 in10.0 miCalmClear
10:35 PM35.6 °F30.2 °F81 %30.37 in10.0 miNNE (30°)4.6 mphClear
10:55 PM35.6 °F30.2 °F81 %30.37 in10.0 miCalmClear
11:15 PM37.4 °F30.2 °F75 %30.37 in10.0 miCalmClear
11:35 PM35.6 °F30.2 °F81 %30.37 in10.0 miCalmClear
Hourly data recorded from CZBB, located miles away from Steveston, British Columbia







STORIES FROM OUR PARTNERS